Location: Moscow
(55.7500°N, 37.5830°E)
Time: 22:30:26
(UTC+03:00)

COSMOS 2251 DEB - Visible Passes

Search period start: 28 November 2022 00:00
Search period end: 08 December 2022 00:00
Orbit: 736 x 848 km, 74.1° (Epoch: 27 November)

Date Brightness Start Highest point End Pass type
(mag) Time Alt. Az. Time Alt. Az. Time Alt. Az.
28 Nov ? 17:51:29 10° W 17:56:10 26° NW 18:00:48 10° NNE visible
28 Nov ? 19:38:26 10° NW 19:40:51 13° NNW 19:42:22 12° N visible
29 Nov ? 17:21:04 10° WSW 17:26:04 31° NW 17:31:00 10° NNE visible
29 Nov ? 19:07:44 10° NW 19:10:33 14° NNW 19:13:02 11° N visible
29 Nov ? 20:53:37 10° NNW 20:53:48 10° NNW 20:53:48 10° NNW visible
30 Nov ? 16:50:45 10° WSW 16:56:00 38° NW 17:01:12 10° NNE visible
30 Nov ? 18:37:01 10° WNW 18:40:16 15° NNW 18:43:29 10° NNE visible
30 Nov ? 20:23:33 10° NNW 20:24:27 11° N 20:24:27 11° N visible
01 Dec ? 18:06:20 10° WNW 18:10:01 17° NNW 18:13:40 10° NNE visible
01 Dec ? 19:53:19 10° NNW 19:55:05 11° N 19:55:06 11° N visible
02 Dec ? 17:35:43 10° W 17:39:49 20° NNW 17:43:52 10° NNE visible
02 Dec ? 19:22:53 10° NNW 19:24:45 12° N 19:25:45 11° N visible
03 Dec ? 17:05:11 10° W 17:09:38 24° NW 17:14:04 10° NNE visible
03 Dec ? 18:52:16 10° NNW 18:54:24 12° N 18:56:24 10° N visible
03 Dec ? 20:36:59 10° NNW 20:37:10 10° N 20:37:10 10° N visible
04 Dec ? 18:21:34 10° NW 18:24:05 13° NNW 18:26:36 10° NNE visible
04 Dec ? 20:07:06 10° NNW 20:07:49 11° N 20:07:49 11° N visible
05 Dec ? 17:50:49 10° NW 17:53:48 14° NNW 17:56:43 10° NNE visible
05 Dec ? 19:37:08 10° NNW 19:38:28 11° N 19:38:28 11° N visible
06 Dec ? 17:20:07 10° WNW 17:23:32 16° NNW 17:26:54 10° NNE visible
06 Dec ? 19:07:00 10° NNW 19:08:38 11° N 19:09:07 11° N visible
07 Dec ? 16:49:28 10° WNW 16:53:18 18° NNW 16:57:06 10° NNE visible
07 Dec ? 18:36:39 10° NNW 18:38:17 11° N 18:39:47 10° NNE visible
07 Dec ? 20:20:11 10° NNW 20:20:32 11° N 20:20:32 11° N visible
